Regional Weather Roundup
Issued by NWS

Home | Current Version | Previous Version | Graphics & Text | Print | Product List | Glossary On
Versions: 1 2 3 4 5 6 7 8 9 10 11 12 13 14 15 16 17 18 19 20 21 22 23 24 25 26 27 28 29 30 31 32 33 34 35 36 37 38 39 40 41 42 43 44 45 46 47 48 49 50
000
ASUS43 KLMK 101102
RWRKY
KENTUCKY REGIONAL WEATHER ROUNDUP
NATIONAL WEATHER SERVICE LOUISVILLE KY
600 AM EST SUN DEC 10 2017

NOTE "FAIR" INDICATES FEW OR NO CLOUDS BELOW 12,000 FEET
WITH NO SIGNIFICANT WEATHER AND/OR OBSTRUCTIONS TO VISIBILITY.

KYZ001>023-026-027-061>063-070>075-101200-
WESTERN AND SOUTH CENTRAL KENTUCKY

CITY           SKY/WX    TMP DP  RH WIND       PRES   REMARKS
PADUCAH        PTCLDY    25  17  72 SW6       30.22F WCI  18
HENDERSON      PTCLDY    22  18  85 SW6       30.22S WCI  14
OWENSBORO      CLEAR     22  17  81 SW6       30.21  WCI  14
HOPKINSVILLE   PTCLDY    23  15  71 SW5       30.23S WCI  17
BOWLING GREEN  CLEAR     23  16  74 SW6       30.23R WCI  16
GLASGOW        NOT AVBL
$$

KYZ024-025-028>034-038-045-046-053-101200-
NORTH CENTRAL KENTUCKY

CITY           SKY/WX    TMP DP  RH WIND       PRES   REMARKS
LOUISVILLE/SDF MOCLDY    25  16  68 SW7       30.18S WCI  17
LOUISVILLE/LOU CLEAR     22  16  78 SW5       30.18S WCI  16
FORT KNOX      CLEAR     19  13  79 SW3       30.16S
$$

KYZ035>037-039>044-047>052-055>060-089>105-101200-
NORTHEAST KENTUCKY

CITY           SKY/WX    TMP DP  RH WIND       PRES   REMARKS
LEXINGTON      CLEAR     20  14  77 SW7       30.16R WCI  11
COVINGTON      CLEAR     22  16  78 SW8       30.11R WCI  12
FRANKFORT      CLEAR     20  13  74 SW5       30.15R WCI  13
$$

KYZ054-064>069-076>088-106>120-101200-
SOUTHEAST KENTUCKY

CITY           SKY/WX    TMP DP  RH WIND       PRES   REMARKS
JACKSON        MOCLDY    25  17  72 VRB3      30.13R
LONDON         CLEAR     24  16  71 SW6       30.17R WCI  17
SOMERSET       NOT AVBL
MIDDLESBORO    PTCLDY    27  17  67 CALM      30.20R
MONTICELLO     SUNNY     14  11  87 NE8       30.22R WCI   3
$$





USA.gov is the U.S. government's official web portal to all federal, state and local government web resources and services.